| time (UTC) | temp C | wind direction | speed KPH | gust KPH | rain 1hr cm | rain 24hr cm | rain mn cm | humidity % | barometer mb |
| 20260507090031 | 10 | 284 | 3.2 | 14.5 | 0.00 | 0.00 | 0.00 | 34 | 1017.4 |
| 20260507084528 | 10 | 317 | 0.0 | 16.1 | 0.00 | 0.00 | 0.00 | 37 | 1017.5 |
| 20260507083024 | 9 | 251 | 8.0 | 19.3 | 0.00 | 0.00 | 0.00 | 37 | 1017.5 |
| 20260507081520 | 9 | 261 | 3.2 | 16.1 | 0.00 | 0.00 | 0.00 | 39 | 1017.5 |
| 20260507080016 | 8 | 224 | 9.7 | 19.3 | 0.00 | 0.00 | 0.00 | 40 | 1017.3 |
| 20260507074511 | 8 | 265 | 11.3 | 20.9 | 0.00 | 0.00 | 0.00 | 42 | 1017.3 |
| 20260507073006 | 7 | 261 | 6.4 | 16.1 | 0.00 | 0.00 | 0.00 | 44 | 1017.3 |
| 20260507071508 | 7 | 300 | 6.4 | 17.7 | 0.00 | 0.00 | 0.00 | 45 | 1017.3 |
| 20260507070005 | 6 | 208 | 4.8 | 16.1 | 0.00 | 0.00 | 0.00 | 47 | 1017.4 |
| 20260507064558 | 6 | 230 | 1.6 | 14.5 | 0.00 | 0.00 | 0.00 | 50 | 1017.4 |
| 20260507063057 | 5 | 236 | 6.4 | 16.1 | 0.00 | 0.00 | 0.00 | 51 | 1017.4 |
| 20260507061558 | 4 | 304 | 1.6 | 9.7 | 0.00 | 0.00 | 0.00 | 56 | 1017.4 |
| 20260507060056 | 3 | 354 | 0.0 | 4.8 | 0.00 | 0.00 | 0.00 | 63 | 1017.4 |
| 20260507054551 | 3 | 294 | 0.0 | 8.0 | 0.00 | 0.00 | 0.00 | 62 | 1017.4 |
| 20260507053116 | 2 | 280 | 3.2 | 12.9 | 0.00 | 0.00 | 0.00 | 65 | 1017.3 |
| 20260507051557 | 1 | 222 | 1.6 | 9.7 | 0.00 | 0.00 | 0.00 | 67 | 1017.3 |
| 20260507050047 | 1 | 288 | 0.0 | 0.0 | 0.00 | 0.00 | 0.00 | 70 | 1017.2 |
| 20260507044546 | 0 | 276 | 0.0 | 0.0 | 0.00 | 0.00 | 0.00 | 72 | 1017.0 |
| 20260507043044 | 0 | 282 | 0.0 | 0.0 | 0.00 | 0.00 | 0.00 | 74 | 1017.0 |
| 20260507041546 | 0 | 280 | 0.0 | 0.0 | 0.00 | 0.00 | 0.00 | 74 | 1016.9 |
| 20260507040040 | 0 | 240 | 0.0 | 0.0 | 0.00 | 0.00 | 0.00 | 72 | 1016.8 |
| 20260507034539 | 0 | 261 | 3.2 | 6.4 | 0.00 | 0.00 | 0.00 | 73 | 1016.7 |
| 20260507033042 | 0 | 281 | 0.0 | 0.0 | 0.00 | 0.00 | 0.00 | 74 | 1016.6 |
| 20260507031531 | 0 | 283 | 0.0 | 4.8 | 0.00 | 0.00 | 0.00 | 71 | 1016.4 |
| 20260507030031 | 0 | 303 | 0.0 | 4.8 | 0.00 | 0.00 | 0.00 | 70 | 1016.5 |
| 20260507024531 | 0 | 300 | 0.0 | 4.8 | 0.00 | 0.00 | 0.00 | 71 | 1016.3 |
| 20260507023032 | 0 | 261 | 0.0 | 6.4 | 0.00 | 0.00 | 0.00 | 71 | 1016.2 |
| 20260507021522 | 0 | 313 | 0.0 | 4.8 | 0.00 | 0.00 | 0.00 | 70 | 1016.0 |
| 20260507020022 | 1 | 287 | 0.0 | 4.8 | 0.00 | 0.00 | 0.00 | 67 | 1015.9 |
| 20260507014517 | 1 | 278 | 0.0 | 4.8 | 0.00 | 0.00 | 0.00 | 65 | 1015.9 |
| 20260507013013 | 2 | 320 | 0.0 | 0.0 | 0.00 | 0.00 | 0.00 | 65 | 1015.8 |
| 20260507011509 | 2 | 261 | 1.6 | 8.0 | 0.00 | 0.00 | 0.00 | 59 | 1015.6 |
| 20260507010013 | 2 | 251 | 0.0 | 8.0 | 0.00 | 0.00 | 0.00 | 61 | 1015.4 |
| 20260507004505 | 2 | 334 | 0.0 | 0.0 | 0.00 | 0.00 | 0.00 | 61 | 1015.4 |
| 20260507003002 | 3 | 322 | 0.0 | 9.7 | 0.00 | 0.00 | 0.00 | 53 | 1015.3 |
| 20260507001559 | 4 | 242 | 4.8 | 14.5 | 0.00 | 0.00 | 0.00 | 51 | 1015.1 |
| 20260507000057 | 4 | 251 | 6.4 | 14.5 | 0.00 | 0.00 | 0.00 | 51 | 1015.1 |
| 20260506234555 | 4 | 247 | 4.8 | 14.5 | 0.00 | 0.00 | 0.00 | 52 | 1015.1 |
| 20260506233057 | 4 | 230 | 6.4 | 16.1 | 0.00 | 0.00 | 0.00 | 51 | 1015.0 |
| 20260506231553 | 4 | 241 | 6.4 | 12.9 | 0.00 | 0.00 | 0.00 | 51 | 1014.8 |
| 20260506230048 | 4 | 219 | 6.4 | 12.9 | 0.00 | 0.00 | 0.00 | 52 | 1014.7 |
| 20260506224646 | 5 | 226 | 8.0 | 14.5 | 0.00 | 0.00 | 0.00 | 49 | 1014.5 |
| 20260506223040 | 5 | 215 | 8.0 | 16.1 | 0.00 | 0.00 | 0.00 | 47 | 1014.6 |
| 20260506221538 | 5 | 216 | 11.3 | 17.7 | 0.00 | 0.00 | 0.00 | 48 | 1014.4 |
| 20260506220040 | 5 | 196 | 8.0 | 19.3 | 0.00 | 0.00 | 0.00 | 47 | 1014.2 |
| 20260506214542 | 5 | 188 | 6.4 | 14.5 | 0.00 | 0.00 | 0.00 | 47 | 1014.2 |
| 20260506213033 | 5 | 197 | 6.4 | 14.5 | 0.00 | 0.00 | 0.00 | 47 | 1014.1 |
| 20260506211533 | 6 | 194 | 6.4 | 14.5 | 0.00 | 0.00 | 0.00 | 46 | 1014.0 |
| 20260506210032 | 6 | 215 | 4.8 | 14.5 | 0.00 | 0.00 | 0.00 | 45 | 1013.8 |
| 20260506204531 | 6 | 217 | 1.6 | 12.9 | 0.00 | 0.00 | 0.00 | 43 | 1013.6 |
| 20260506203030 | 6 | 207 | 6.4 | 16.1 | 0.00 | 0.00 | 0.00 | 41 | 1013.5 |
| 20260506201529 | 6 | 216 | 4.8 | 12.9 | 0.00 | 0.00 | 0.00 | 39 | 1013.5 |
| 20260506200028 | 7 | 228 | 1.6 | 9.7 | 0.00 | 0.00 | 0.00 | 37 | 1013.3 |
| 20260506194528 | 7 | 244 | 1.6 | 8.0 | 0.00 | 0.00 | 0.00 | 36 | 1013.1 |
| 20260506193026 | 8 | 241 | 3.2 | 12.9 | 0.00 | 0.00 | 0.00 | 35 | 1012.9 |
| 20260506191526 | 8 | 242 | 3.2 | 17.7 | 0.00 | 0.00 | 0.00 | 32 | 1012.8 |
| 20260506190027 | 9 | 297 | 6.4 | 20.9 | 0.00 | 0.00 | 0.00 | 32 | 1012.6 |
| 20260506184525 | 10 | 296 | 6.4 | 17.7 | 0.00 | 0.00 | 0.00 | 31 | 1012.5 |
| 20260506183132 | 10 | 317 | 1.6 | 22.5 | 0.00 | 0.00 | 0.00 | 29 | 1012.3 |
| 20260506181524 | 10 | 285 | 0.0 | 16.1 | 0.00 | 0.00 | 0.00 | 28 | 1011.9 |
| 20260506180023 | 11 | 293 | 0.0 | 16.1 | 0.00 | 0.00 | 0.00 | 28 | 1011.8 |
| 20260506174522 | 11 | 251 | 0.0 | 16.1 | 0.00 | 0.00 | 0.00 | 27 | 1011.5 |
| 20260506173022 | 12 | 316 | 1.6 | 14.5 | 0.00 | 0.00 | 0.00 | 26 | 1011.5 |
| 20260506171523 | 12 | 292 | 0.0 | 19.3 | 0.00 | 0.00 | 0.00 | 24 | 1011.4 |
| 20260506170023 | 12 | 251 | 3.2 | 14.5 | 0.00 | 0.00 | 0.00 | 23 | 1011.3 |
| 20260506164519 | 13 | 256 | 3.2 | 16.1 | 0.00 | 0.00 | 0.00 | 24 | 1011.3 |
| 20260506163018 | 13 | 265 | 0.0 | 11.3 | 0.00 | 0.00 | 0.00 | 25 | 1011.3 |
| 20260506161518 | 13 | 251 | 4.8 | 19.3 | 0.00 | 0.00 | 0.00 | 24 | 1011.2 |
| 20260506160019 | 13 | 321 | 3.2 | 19.3 | 0.00 | 0.00 | 0.00 | 23 | 1011.2 |
| 20260506154517 | 14 | 299 | 1.6 | 14.5 | 0.00 | 0.00 | 0.00 | 25 | 1011.1 |
| 20260506153016 | 14 | 333 | 0.0 | 16.1 | 0.00 | 0.00 | 0.00 | 25 | 1011.0 |
| 20260506151516 | 13 | 292 | 0.0 | 1.6 | 0.00 | 0.00 | 0.00 | 29 | 1011.2 |
| 20260506150014 | 14 | 19 | 0.0 | 3.2 | 0.00 | 0.00 | 0.00 | 31 | 1011.4 |
| 20260506144515 | 13 | 101 | 0.0 | 3.2 | 0.00 | 0.00 | 0.00 | 29 | 1011.4 |
| 20260506143009 | 14 | 307 | 0.0 | 9.7 | 0.00 | 0.00 | 0.00 | 27 | 1011.4 |
| 20260506141507 | 14 | 331 | 0.0 | 6.4 | 0.00 | 0.00 | 0.00 | 29 | 1011.6 |
| 20260506140005 | 13 | 256 | 0.0 | 1.6 | 0.00 | 0.00 | 0.00 | 29 | 1011.7 |
| 20260506134504 | 13 | 251 | 1.6 | 14.5 | 0.00 | 0.00 | 0.00 | 29 | 1011.8 |
| 20260506133003 | 13 | 301 | 1.6 | 14.5 | 0.00 | 0.00 | 0.00 | 27 | 1011.8 |
| 20260506131506 | 13 | 78 | 0.0 | 14.5 | 0.00 | 0.00 | 0.00 | 30 | 1011.9 |
| 20260506130002 | 13 | 282 | 0.0 | 3.2 | 0.00 | 0.00 | 0.00 | 29 | 1012.0 |
| 20260506124559 | 13 | 24 | 0.0 | 3.2 | 0.00 | 0.00 | 0.00 | 27 | 1012.1 |
| 20260506123055 | 12 | 271 | 0.0 | 3.2 | 0.00 | 0.00 | 0.00 | 29 | 1012.3 |
| 20260506121553 | 12 | 213 | 0.0 | 14.5 | 0.00 | 0.00 | 0.00 | 31 | 1012.4 |
| 20260506120051 | 11 | 153 | 0.0 | 0.0 | 0.00 | 0.00 | 0.00 | 33 | 1012.5 |
| 20260506114549 | 12 | 45 | 0.0 | 0.0 | 0.00 | 0.00 | 0.00 | 31 | 1012.6 |
| 20260506113047 | 11 | 251 | 0.0 | 1.6 | 0.00 | 0.00 | 0.00 | 27 | 1012.7 |
| 20260506111545 | 11 | 165 | 3.2 | 11.3 | 0.00 | 0.00 | 0.00 | 31 | 1012.8 |
| 20260506110045 | 11 | 325 | 0.0 | 1.6 | 0.00 | 0.00 | 0.00 | 35 | 1012.8 |
| 20260506104547 | 10 | 271 | 0.0 | 12.9 | 0.00 | 0.00 | 0.00 | 33 | 1012.9 |
| 20260506103040 | 10 | 344 | 0.0 | 14.5 | 0.00 | 0.00 | 0.00 | 35 | 1013.0 |
| 20260506101536 | 10 | 225 | 6.4 | 16.1 | 0.00 | 0.00 | 0.00 | 36 | 1013.2 |
| 20260506100031 | 10 | 227 | 1.6 | 17.7 | 0.00 | 0.00 | 0.00 | 36 | 1013.3 |
| 20260506094529 | 9 | 227 | 9.7 | 19.3 | 0.00 | 0.00 | 0.00 | 36 | 1013.2 |
| 20260506093033 | 8 | 217 | 9.7 | 19.3 | 0.00 | 0.00 | 0.00 | 37 | 1013.4 |
| 20260506091526 | 8 | 196 | 12.9 | 17.7 | 0.00 | 0.00 | 0.00 | 37 | 1013.5 |